Weather History for KGDV - October, 2013

Change the Weather History Date:

Saturday, October 5, 2013

  Actual Average Record
Temperature  
Mean Temperature 40 °F -  
Max Temperature 55 °F 61 °F - (-1)
Min Temperature 26 °F 35 °F - (-1)
Degree Days  
Heating Degree Days 24    
Moisture  
Dew Point 23 °F    
Average Humidity 55    
Maximum Humidity 80    
Minimum Humidity 26    
Precipitation  
Precipitation 0.00 in - - ()
Sea Level Pressure  
Sea Level Pressure 30.18 in    
Wind  
Wind Speed 11 mph (NW)    
Max Wind Speed 15 mph    
Max Gust Speed 20 mph    
Visibility 10 miles    
Events      
Averages and records for this station are not official NWS values.
T = Trace of Precipitation, MM = Missing Value Source: NWS Daily Summary

Daily Weather History Graph

Daily Weather History Graph

Search for Another Location

Airport or City:

Trip Planner

Search our weather history database for the weather conditions in past years. The results will help you decide how hot, cold, wet, or windy it might be!

Date:

Astronomy

Oct. 05, 2013 Rise Set
Actual Time 7:03 AM MDT 6:30 PM MDT
Civil Twilight 6:33 AM MDT 7:00 PM MDT
Nautical Twilight 5:58 AM MDT 7:35 PM MDT
Astronomical Twilight 5:22 AM MDT 8:11 PM MDT
Moon 7:51 AM MDT (10/5) 6:44 PM MDT (10/5)
Length of Visible Light 12h 27m
Length of Day
11h 26m
New Moon, 1% of the Moon is Illuminated
Oct 5
New Moon
Oct 11
First Quarter
Oct 18
Full
Oct 26
Last Quarter
Nov 3
New

Hourly Weather History & Observations

Time (MDT) Temp. Windchill Dew Point Humidity Pressure Visibility Wind Dir Wind Speed Gust Speed Precip Events Conditions
12:15 AM 28.4 °F 18.5 °F 23.0 °F 80% 30.28 in 10.0 mi NW 11.5 mph - N/A   Clear
12:35 AM 30.2 °F 20.8 °F 23.0 °F 75% 30.28 in 10.0 mi NW 11.5 mph - N/A   Clear
12:55 AM 30.2 °F 20.2 °F 23.0 °F 75% 30.28 in 10.0 mi NW 12.7 mph - N/A   Clear
1:15 AM 28.4 °F 18.0 °F 21.2 °F 74% 30.27 in 10.0 mi NW 12.7 mph - N/A   Clear
1:35 AM 28.4 °F 17.5 °F 23.0 °F 80% 30.27 in 10.0 mi NW 13.8 mph - N/A   Clear
1:55 AM 28.4 °F 17.5 °F 21.2 °F 74% 30.28 in 10.0 mi NW 13.8 mph - N/A   Clear
2:15 AM 28.4 °F 17.5 °F 21.2 °F 74% 30.27 in 10.0 mi NW 13.8 mph - N/A   Clear
2:35 AM 28.4 °F 17.5 °F 21.2 °F 74% 30.26 in 10.0 mi NW 13.8 mph - N/A   Clear
2:55 AM 28.4 °F 17.0 °F 21.2 °F 74% 30.25 in 10.0 mi NW 15.0 mph - N/A   Clear
3:15 AM 28.4 °F 18.0 °F 21.2 °F 74% 30.24 in 10.0 mi NW 12.7 mph - N/A   Clear
3:35 AM 28.4 °F 18.5 °F 21.2 °F 74% 30.24 in 10.0 mi NW 11.5 mph - N/A   Clear
3:55 AM 28.4 °F 18.5 °F 21.2 °F 74% 30.25 in 10.0 mi NW 11.5 mph - N/A   Clear
4:15 AM 28.4 °F 18.0 °F 21.2 °F 74% 30.25 in 10.0 mi NW 12.7 mph - N/A   Clear
4:35 AM 28.4 °F 18.5 °F 21.2 °F 74% 30.26 in 10.0 mi NW 11.5 mph - N/A   Clear
4:55 AM 28.4 °F 18.0 °F 21.2 °F 74% 30.25 in 10.0 mi NW 12.7 mph - N/A   Clear
5:15 AM 28.4 °F 17.5 °F 21.2 °F 74% 30.25 in 10.0 mi NW 13.8 mph - N/A   Clear
5:35 AM 26.6 °F 15.7 °F 21.2 °F 80% 30.25 in 10.0 mi NW 12.7 mph - N/A   Clear
5:55 AM 26.6 °F 16.8 °F 19.4 °F 74% 30.26 in 10.0 mi NNW 10.4 mph - N/A   Clear
6:15 AM 26.6 °F 16.2 °F 21.2 °F 80% 30.25 in 10.0 mi NNW 11.5 mph - N/A   Clear
6:35 AM 26.6 °F 16.2 °F 21.2 °F 80% 30.24 in 10.0 mi NW 11.5 mph - N/A   Clear
7:15 AM 26.6 °F 16.2 °F 21.2 °F 80% 30.24 in 10.0 mi NW 11.5 mph - N/A   Clear
7:35 AM 26.6 °F 16.2 °F 21.2 °F 80% 30.24 in 10.0 mi NW 11.5 mph - N/A   Clear
7:55 AM 28.4 °F 19.7 °F 21.2 °F 74% 30.24 in 10.0 mi NW 9.2 mph - N/A   Clear
8:15 AM 30.2 °F 21.3 °F 21.2 °F 69% 30.25 in 10.0 mi NNW 10.4 mph - N/A   Clear
8:35 AM 32.0 °F 24.2 °F 23.0 °F 69% 30.24 in 10.0 mi NW 9.2 mph - N/A   Clear
8:55 AM 35.6 °F 28.0 °F 23.0 °F 60% 30.24 in 10.0 mi NW 10.4 mph - N/A   Clear
9:15 AM 37.4 °F 30.3 °F 24.8 °F 60% 30.24 in 10.0 mi NNW 10.4 mph - N/A   Clear
9:35 AM 39.2 °F 32.5 °F 24.8 °F 56% 30.24 in 10.0 mi NNW 10.4 mph - N/A   Clear
9:55 AM 41.0 °F 34.7 °F 24.8 °F 53% 30.24 in 10.0 mi NW 10.4 mph - N/A   Clear
10:15 AM 42.8 °F 36.6 °F 24.8 °F 49% 30.23 in 10.0 mi NW 11.5 mph 16.1 mph N/A   Clear
10:35 AM 44.6 °F 38.8 °F 24.8 °F 46% 30.22 in 10.0 mi NW 11.5 mph - N/A   Clear
10:55 AM 44.6 °F 38.8 °F 24.8 °F 46% 30.22 in 10.0 mi NNW 11.5 mph - N/A   Clear
11:15 AM 46.4 °F 41.5 °F 24.8 °F 43% 30.22 in 10.0 mi NNW 10.4 mph 18.4 mph N/A   Clear
11:35 AM 46.4 °F 40.4 °F 24.8 °F 43% 30.21 in 10.0 mi NW 13.8 mph 18.4 mph N/A   Clear
11:55 AM 48.2 °F - 24.8 °F 40% 30.20 in 10.0 mi NNW 8.1 mph - N/A   Clear
12:15 PM 48.2 °F - 24.8 °F 40% 30.19 in 10.0 mi NNW 13.8 mph 19.6 mph N/A   Clear
12:35 PM 48.2 °F - 24.8 °F 40% 30.19 in 10.0 mi NNW 11.5 mph - N/A   Clear
12:55 PM 50.0 °F - 24.8 °F 37% 30.18 in 10.0 mi NW 13.8 mph 17.3 mph N/A   Clear
1:15 PM 50.0 °F - 24.8 °F 37% 30.16 in 10.0 mi NW 8.1 mph - N/A   Clear
1:35 PM 51.8 °F - 24.8 °F 35% 30.15 in 10.0 mi NW 8.1 mph - N/A   Clear
1:55 PM 51.8 °F - 24.8 °F 35% 30.14 in 10.0 mi North 10.4 mph - N/A   Clear
2:15 PM 53.6 °F - 24.8 °F 33% 30.13 in 10.0 mi NW 8.1 mph - N/A   Clear
2:35 PM 53.6 °F - 24.8 °F 33% 30.13 in 10.0 mi NW 13.8 mph - N/A   Clear
2:55 PM 53.6 °F - 24.8 °F 33% 30.13 in 10.0 mi NW 5.8 mph - N/A   Clear
3:15 PM 53.6 °F - 24.8 °F 33% 30.12 in 10.0 mi NNW 10.4 mph - N/A   Clear
3:35 PM 53.6 °F - 24.8 °F 33% 30.11 in 10.0 mi NNW 9.2 mph - N/A   Clear
3:55 PM 55.4 °F - 23.0 °F 29% 30.10 in 10.0 mi NNW 10.4 mph - N/A   Clear
4:15 PM 55.4 °F - 23.0 °F 29% 30.10 in 10.0 mi WNW 11.5 mph - N/A   Clear
4:35 PM 55.4 °F - 23.0 °F 29% 30.10 in 10.0 mi NW 10.4 mph - N/A   Clear
4:55 PM 55.4 °F - 21.2 °F 26% 30.10 in 10.0 mi NW 10.4 mph - N/A   Clear
5:35 PM 53.6 °F - 21.2 °F 28% 30.11 in 10.0 mi NW 9.2 mph - N/A   Clear
5:55 PM 53.6 °F - 21.2 °F 28% 30.10 in 10.0 mi NW 5.8 mph - N/A   Clear
6:15 PM 51.8 °F - 21.2 °F 30% 30.10 in 10.0 mi NNW 4.6 mph - N/A   Clear
6:35 PM 48.2 °F - 21.2 °F 34% 30.09 in 10.0 mi NNW 4.6 mph - N/A   Clear
6:55 PM 48.2 °F - 21.2 °F 34% 30.09 in 10.0 mi Calm Calm - N/A   Clear
7:15 PM 42.8 °F - 21.2 °F 42% 30.09 in 10.0 mi Calm Calm - N/A   Clear
7:35 PM 39.2 °F - 21.2 °F 49% 30.09 in 10.0 mi Calm Calm - N/A   Clear
7:55 PM 37.4 °F 34.9 °F 19.4 °F 48% 30.08 in 10.0 mi West 3.5 mph - N/A   Clear
8:35 PM 37.4 °F 32.8 °F 21.2 °F 52% 30.08 in 10.0 mi West 5.8 mph - N/A   Clear
8:55 PM 35.6 °F 29.9 °F 21.2 °F 56% 30.08 in 10.0 mi West 6.9 mph - N/A   Clear
9:15 PM 37.4 °F 32.1 °F 21.2 °F 52% 30.08 in 10.0 mi WSW 6.9 mph - N/A   Clear
9:55 PM 37.4 °F 32.1 °F 23.0 °F 56% 30.07 in 10.0 mi West 6.9 mph - N/A   Clear
10:15 PM 37.4 °F 32.1 °F 23.0 °F 56% 30.07 in 10.0 mi West 6.9 mph - N/A   Clear
10:55 PM 37.4 °F 30.8 °F 21.2 °F 52% 30.06 in 10.0 mi West 9.2 mph - N/A   Clear
11:15 PM 37.4 °F 31.4 °F 24.8 °F 60% 30.06 in 10.0 mi WNW 8.1 mph - N/A   Clear
11:35 PM 39.2 °F 35.0 °F 24.8 °F 56% 30.05 in 10.0 mi WNW 5.8 mph - N/A   Clear
11:55 PM 37.4 °F - 24.8 °F 60% 30.05 in 10.0 mi Calm Calm - N/A   Clear